GFSCGP_850_thetae_000.txt.gz
Theta_e
312 311 312 311 309 312 311 309 307 306 306 308 307 307 309 309 302 300 300 299 300 300 299 297 295 294 294 293 292 291 291 291 291 292 292 292 293 292 292 292 292 292 292 291
311 312 310 310 309 309 308 309 307 306 306 306 306 306 306 307 304 304 302 300 301 299 298 296 294 294 293 293 292 291 291 291 291 291 291 291 291 291 292 291 291 291 290 290
311 313 309 310 308 308 307 307 307 308 304 303 301 304 302 304 305 305 304 304 301 300 299 295 294 293 293 293 292 291 291 291 291 290 290 290 290 290 290 290 290 290 289 289
311 309 308 307 308 307 310 305 306 306 305 306 304 310 305 305 304 302 304 304 303 300 297 297 294 293 293 293 292 291 290 290 290 290 290 290 289 289 290 289 289 289 289 288
313 307 307 308 308 305 308 304 305 304 304 302 303 302 302 300 303 305 303 304 304 302 300 298 295 294 293 292 291 290 290 290 290 290 290 290 289 289 289 289 289 288 288 288
308 307 305 307 305 304 304 305 301 298 299 304 305 304 304 301 302 303 302 303 304 302 299 297 296 294 293 292 290 290 290 290 289 290 290 289 288 288 288 288 288 288 287 287
310 306 305 306 307 306 304 306 310 308 304 310 300 300 307 304 301 302 301 301 302 301 298 297 295 293 292 291 290 290 290 289 289 289 289 289 288 288 288 287 287 287 287 286
312 313 305 303 307 307 303 306 310 307 307 309 298 306 307 301 301 299 298 299 300 299 298 297 296 294 293 291 290 290 289 289 289 289 289 288 287 287 287 287 286 286 286 286
311 311 303 304 303 305 305 305 305 305 289 299 308 304 303 302 299 296 295 297 300 299 298 297 295 293 292 291 290 289 289 289 289 288 288 287 287 287 286 286 286 286 285 286
312 314 304 301 302 299 302 301 305 304 307 301 306 306 309 309 304 302 295 295 301 299 298 296 296 294 292 290 289 289 289 288 288 287 287 287 287 286 286 286 286 286 285 284
307 311 307 302 302 303 299 302 301 302 303 307 304 310 305 307 305 304 297 302 303 302 300 297 295 293 292 290 289 289 288 288 287 287 286 286 286 286 286 286 285 285 284 283
306 308 311 308 299 297 302 302 303 307 307 301 303 311 303 304 303 300 298 303 304 302 301 298 295 292 291 290 289 288 288 287 287 287 286 286 286 286 286 285 284 283 282 282
305 308 313 310 304 300 299 301 301 302 301 304 307 311 299 299 298 296 297 301 301 301 299 296 293 292 291 290 288 288 288 287 287 286 286 286 286 285 285 284 283 282 281 282
308 308 309 311 309 304 302 300 301 305 307 309 309 309 309 308 308 308 303 299 302 301 299 296 292 292 291 289 288 288 288 287 286 286 286 285 285 284 284 283 282 281 281 282
307 311 310 309 309 302 303 303 303 302 305 307 309 308 309 308 308 308 309 308 302 298 295 295 292 291 290 289 288 288 287 286 286 286 285 285 284 283 283 281 280 281 281 282
301 310 309 310 308 305 307 308 308 302 303 303 305 307 308 309 309 308 307 306 302 300 299 295 291 291 289 289 288 287 287 286 286 285 285 284 283 282 281 280 280 280 281 281
300 304 301 311 305 304 307 308 309 309 308 306 306 306 307 307 307 306 306 303 302 301 299 293 291 290 289 288 288 287 286 286 285 285 284 283 282 281 280 279 279 280 281 281
301 302 307 310 300 310 310 308 305 307 308 308 308 308 308 308 308 303 305 304 303 300 296 292 290 290 288 288 287 286 286 286 285 284 283 282 281 280 279 278 279 280 280 278
305 304 307 310 310 309 308 303 302 303 307 307 305 307 306 306 298 302 303 303 302 302 299 294 290 289 288 287 286 286 286 285 284 283 283 281 280 278 277 278 278 279 279 278
306 306 309 310 311 312 309 306 298 300 308 308 307 306 305 297 302 305 305 303 299 296 294 292 289 288 287 287 286 286 285 285 284 283 282 280 278 277 276 277 278 277 277 277
304 306 309 311 312 311 308 293 298 306 310 306 307 306 305 299 303 302 301 298 294 294 292 289 288 287 287 286 286 285 285 284 284 283 281 279 277 276 276 276 276 277 277 276
310 308 309 308 311 313 304 295 305 308 308 306 303 306 301 302 300 299 298 295 292 291 288 287 287 287 286 286 286 285 285 285 284 282 280 278 275 275 275 276 275 276 276 275
312 310 312 311 310 306 304 308 308 307 309 307 302 305 303 300 296 296 294 291 290 289 288 287 287 287 286 286 285 285 285 284 283 280 278 276 275 274 274 275 275 275 274 272
309 309 310 310 309 307 303 306 309 309 306 307 304 305 304 301 298 294 292 289 289 288 287 286 286 285 286 285 284 284 284 283 281 279 277 275 274 273 273 274 274 274 272 269
310 309 310 310 309 309 309 309 307 303 304 303 302 302 302 301 297 295 290 288 288 287 286 286 286 286 285 284 284 284 283 282 279 278 276 274 272 271 272 273 273 273 272 267
310 311 311 312 310 309 309 310 310 309 304 302 301 299 300 299 298 293 290 289 289 287 286 285 285 284 284 284 284 283 283 280 278 276 274 272 271 270 270 271 273 273 273 272

GFSCGP_850_thetae_003.txt.gz
Theta_e
311 310 311 310 309 311 311 311 311 308 306 307 307 308 309 309 307 304 304 303 304 306 305 302 300 298 296 295 295 294 294 293 293 293 293 293 293 293 293 293 292 292 291 291
309 311 309 309 307 309 308 309 308 306 305 305 305 307 308 307 308 309 305 303 304 303 302 302 299 296 295 295 295 294 293 292 292 292 292 293 293 294 293 292 291 291 291 291
309 310 307 309 308 308 307 307 308 309 304 303 302 305 303 304 305 306 306 306 306 306 304 302 299 296 295 294 294 293 292 291 291 291 291 291 292 292 292 291 291 291 291 291
308 308 309 308 309 307 310 305 307 307 306 308 303 311 306 306 306 304 306 306 308 307 304 302 300 297 295 294 294 292 291 291 291 291 290 290 291 291 290 289 289 289 290 290
310 306 307 308 309 306 309 304 304 304 304 302 303 304 307 300 304 307 305 308 309 309 306 304 301 300 297 294 293 292 291 290 290 290 290 290 290 289 289 289 289 289 289 289
307 306 305 308 303 305 302 304 301 298 300 305 307 307 306 304 305 305 304 308 309 308 307 305 301 298 297 294 293 292 291 290 290 290 289 289 289 289 289 288 288 288 289 289
309 306 304 305 307 305 304 307 310 309 306 311 299 302 308 305 302 304 306 307 307 306 306 304 302 298 296 294 293 292 291 290 290 289 289 289 289 289 288 288 287 288 288 288
311 312 304 303 308 309 304 307 311 309 307 309 297 305 309 302 305 304 305 305 306 307 306 305 304 301 298 295 293 292 290 289 289 289 289 289 288 288 288 287 287 287 287 287
310 311 303 303 303 305 304 306 305 304 289 303 308 306 305 303 302 299 299 300 304 307 307 305 302 302 299 296 294 292 290 289 289 289 289 288 288 287 287 287 287 287 287 286
311 313 304 300 302 299 303 301 306 305 309 305 308 309 310 306 306 303 301 299 306 307 307 305 304 302 299 297 294 291 290 289 289 289 289 288 287 287 287 287 287 287 287 287
308 312 307 302 303 303 301 303 302 304 305 307 306 310 305 306 305 305 304 305 308 309 308 308 306 303 299 296 293 291 289 289 288 288 288 287 287 287 287 286 286 286 286 286
307 310 313 304 300 299 301 304 305 308 307 302 304 310 305 307 304 303 305 307 308 307 307 307 304 301 300 296 292 290 288 288 288 288 288 287 287 286 286 286 286 286 286 285
306 309 311 312 303 300 302 301 302 302 302 309 307 310 306 303 303 304 303 304 306 307 306 305 302 301 299 295 292 289 288 288 288 288 287 287 286 286 286 287 286 286 285 284
309 309 312 311 309 304 303 300 302 304 309 309 308 309 309 309 307 304 305 306 305 305 305 303 300 299 296 293 291 289 288 287 288 287 287 286 286 286 287 286 285 284 283 281
307 312 311 311 310 305 304 305 304 304 306 308 309 308 308 309 308 308 308 308 307 307 306 305 301 299 294 292 290 288 287 287 287 287 286 286 286 286 286 285 284 282 281 281
303 310 309 312 310 306 307 306 308 306 306 304 305 306 308 308 308 307 308 308 307 306 305 305 303 297 294 292 290 288 287 287 287 286 286 286 286 286 285 284 283 282 281 280
304 307 309 312 310 305 307 309 310 309 308 308 308 307 307 306 306 306 306 307 306 306 306 305 304 301 296 292 289 288 287 287 286 286 286 286 286 285 284 283 282 281 280 280
309 307 309 311 308 311 310 307 307 307 307 306 307 308 308 308 308 308 307 307 306 307 307 305 303 298 293 290 288 288 287 287 286 286 286 286 285 284 283 282 280 279 279 279
308 309 310 311 312 310 309 306 304 306 307 307 307 306 307 307 306 305 307 307 308 307 306 304 303 298 294 289 288 287 287 286 286 286 286 285 284 283 282 280 278 278 278 279
308 308 309 311 311 312 309 308 305 301 307 307 307 307 307 304 305 307 307 307 308 308 303 301 299 296 291 288 287 287 286 286 286 286 286 285 283 283 280 278 277 277 277 278
305 308 310 310 312 311 308 303 302 307 309 308 307 306 306 304 306 308 306 306 305 303 301 299 295 293 289 287 287 286 286 286 286 286 285 283 282 281 278 277 276 276 276 277
310 309 310 311 311 312 307 303 306 309 309 309 309 307 306 307 307 306 307 305 302 302 297 294 292 289 287 287 287 286 286 286 285 285 284 282 280 278 277 276 275 276 276 277
312 310 312 310 310 306 308 308 308 308 308 309 309 309 307 306 306 307 307 302 299 297 294 292 290 288 286 286 286 287 286 286 285 285 282 280 278 277 276 276 275 275 275 275
310 309 310 310 310 306 304 308 309 309 307 308 308 308 307 305 305 305 303 299 297 296 291 288 288 286 285 285 286 286 286 285 285 283 280 279 277 276 275 274 274 274 274 273
310 309 310 310 309 309 309 309 308 308 308 308 308 308 307 304 305 305 302 299 297 295 291 287 287 286 285 286 285 285 285 284 283 280 279 277 276 275 274 273 272 273 273 269
306 307 309 310 310 309 310 310 310 309 309 309 309 307 308 306 304 302 302 298 294 292 289 285 285 285 285 285 285 284 284 282 280 279 277 276 275 275 274 273 272 272 273 273

GFSCGP_850_thetae_006.txt.gz
Theta_e
313 316 317 318 317 317 316 316 318 318 311 312 314 314 314 313 313 313 312 313 309 305 306 305 305 302 301 299 298 297 296 296 295 295 295 295 295 295 295 295 295 294 294 293
314 316 317 313 313 314 315 317 319 317 310 309 313 312 312 312 313 312 313 313 312 306 304 302 303 302 301 299 297 296 296 295 295 295 295 295 295 295 295 295 294 293 293 293
315 316 310 313 313 314 315 317 318 316 311 308 308 313 311 311 308 309 310 310 310 307 305 302 303 303 300 298 297 296 296 296 295 294 294 294 294 294 293 293 293 293 293 292
314 312 312 313 315 315 317 314 313 312 313 316 309 316 315 313 311 311 312 311 308 310 307 305 305 303 302 300 297 296 295 295 294 293 293 293 292 292 293 292 293 292 291 290
315 311 311 314 315 313 316 308 310 309 312 309 314 312 314 307 310 312 314 313 309 310 309 309 308 306 303 300 298 296 295 294 293 292 291 291 292 292 291 292 291 291 290 290
312 306 310 313 305 307 305 308 308 306 308 314 314 313 313 313 312 312 313 311 309 310 310 308 306 303 301 300 298 296 294 294 293 291 291 291 291 291 291 290 290 289 290 289
312 311 307 306 311 307 308 313 318 321 318 318 309 310 312 312 312 312 314 313 309 308 309 308 307 305 303 302 299 296 294 293 292 290 290 290 290 290 290 289 290 289 288 288
315 316 308 308 314 316 310 315 320 323 319 318 305 311 314 311 311 311 307 307 307 307 307 308 308 306 306 304 300 297 294 293 291 290 289 289 290 290 290 289 288 287 287 288
314 315 305 304 305 311 309 312 312 317 305 313 314 315 312 309 308 307 306 306 306 307 308 309 308 306 306 305 304 300 295 292 291 290 289 289 290 289 289 289 288 287 287 287
314 314 308 302 303 302 306 307 312 313 320 319 315 315 314 313 311 309 307 307 308 308 308 309 308 308 306 305 303 298 295 294 292 290 289 289 289 289 289 288 287 287 287 287
312 314 310 305 307 310 306 309 307 309 313 317 316 315 310 311 311 310 310 310 310 308 309 309 309 308 306 304 302 300 295 293 291 289 289 289 289 289 288 287 287 287 287 287
311 313 315 313 303 302 308 310 310 313 314 311 313 315 310 310 311 309 310 309 309 310 309 309 309 308 307 305 302 299 293 293 291 289 289 288 289 288 287 287 287 287 287 286
309 312 317 315 306 301 306 306 308 310 312 313 315 313 312 312 310 308 309 309 309 310 309 308 308 307 306 303 300 297 292 291 290 289 288 288 288 288 287 287 287 287 286 286
309 312 315 313 313 308 309 308 307 309 312 313 313 312 312 312 311 311 310 305 307 308 308 308 308 307 304 302 299 295 291 291 290 288 288 288 288 287 287 287 287 287 286 286
310 313 313 314 314 313 313 311 309 308 309 311 312 312 312 312 311 311 310 309 309 309 306 307 307 306 303 301 297 294 292 290 289 288 288 287 287 287 286 287 286 286 286 285
307 313 312 312 311 311 312 311 312 312 311 311 309 309 309 310 310 309 309 309 308 308 308 306 306 306 305 303 299 295 291 289 288 287 287 287 287 286 287 286 286 286 285 284
308 310 312 314 312 312 313 312 312 312 312 312 312 311 311 311 310 310 310 309 308 307 307 307 306 306 306 304 301 296 292 289 288 287 287 287 286 286 286 286 286 285 283 282
311 310 311 313 313 314 313 311 311 311 311 311 311 311 311 311 310 309 309 309 309 308 308 307 306 306 305 303 298 293 291 288 287 286 287 286 286 286 286 285 284 283 282 281
310 311 312 313 314 313 309 310 310 310 311 310 310 309 310 309 309 309 308 308 307 308 307 307 307 305 303 300 296 293 289 287 286 286 286 286 286 286 285 284 283 282 282 280
309 310 311 313 314 315 313 311 309 306 309 310 309 308 308 307 309 310 309 309 308 309 308 308 306 303 300 298 297 293 288 287 286 286 286 286 286 284 283 283 282 281 280 279
310 310 311 312 313 314 311 307 306 309 311 310 309 309 308 308 309 309 310 306 307 307 307 307 306 303 299 295 293 290 287 286 286 286 285 286 285 283 283 282 281 280 278 277
313 312 312 311 312 313 311 311 309 311 311 310 310 310 308 308 308 307 308 307 305 306 306 305 304 299 295 293 290 287 285 285 285 285 285 285 283 283 282 282 280 278 277 277
314 313 313 312 313 311 310 311 310 309 311 311 310 310 309 307 306 308 308 309 309 305 302 300 300 297 293 289 288 286 285 285 285 285 285 284 282 281 281 280 279 278 276 276
309 311 310 311 311 311 309 309 309 310 309 308 309 309 308 307 307 308 308 307 307 306 302 296 294 292 289 285 286 286 285 285 284 285 284 282 281 280 279 279 278 277 276 275
304 303 305 305 305 305 308 309 309 309 308 308 308 307 307 306 305 306 306 307 307 305 300 294 291 289 288 284 285 284 285 285 285 285 283 282 280 279 278 277 277 276 274 274
298 301 303 305 306 306 306 305 304 303 304 306 307 308 308 308 307 306 306 306 304 303 300 293 288 288 287 284 283 284 284 285 285 284 282 280 278 277 277 276 275 274 273 274

GFSCGP_850_thetae_009.txt.gz
Theta_e
316 317 318 319 319 319 319 318 318 318 319 317 317 317 317 317 316 316 316 315 315 315 315 309 307 305 303 300 299 300 300 299 298 297 296 296 296 296 296 296 296 297 296 296
316 316 317 317 317 318 318 318 318 319 319 314 316 317 317 317 317 316 315 315 315 315 314 309 306 304 302 300 300 299 299 299 298 297 296 296 295 295 295 296 296 296 296 295
317 317 315 316 317 317 317 317 318 319 319 314 314 316 317 316 314 314 313 313 313 314 314 309 305 302 301 300 300 300 299 299 298 296 296 295 295 294 294 295 295 296 295 295
316 316 316 315 315 316 317 317 318 318 318 319 314 318 318 317 316 315 313 313 314 312 312 309 305 302 302 302 301 300 299 298 298 297 296 295 295 294 294 294 295 295 294 294
315 316 314 315 316 316 317 312 315 316 317 318 317 318 317 312 314 313 314 314 315 314 310 308 305 306 304 304 303 301 300 298 297 297 296 295 294 294 293 294 294 294 293 293
314 310 313 315 310 312 310 312 312 312 314 318 317 318 317 317 314 314 315 314 314 312 309 307 305 304 305 304 303 302 301 299 298 297 296 295 294 293 293 293 294 293 293 292
316 314 312 310 313 310 311 315 318 322 321 321 318 316 317 317 314 314 314 314 314 311 309 307 305 307 307 306 306 301 302 302 298 297 296 295 294 292 292 292 292 292 292 291
316 317 314 310 314 318 313 316 320 324 320 320 313 316 316 316 315 313 313 312 311 310 309 308 308 309 309 307 305 302 303 304 299 297 295 294 293 292 291 291 291 292 291 290
315 316 309 310 310 314 314 313 315 320 319 319 316 317 318 315 313 313 311 310 310 308 308 309 309 310 309 308 308 307 303 301 301 298 295 294 292 291 290 291 291 290 290 289
315 315 314 305 306 307 310 311 315 315 322 319 317 318 318 315 314 313 312 311 311 310 308 307 308 309 309 309 307 305 303 302 300 298 296 294 292 291 290 290 290 290 289 288
314 315 314 307 309 313 309 311 310 311 317 318 318 317 314 315 314 314 314 312 312 312 309 308 308 308 309 309 307 306 304 301 299 297 295 293 291 290 289 290 290 289 288 288
312 314 315 314 313 309 311 313 313 314 315 314 315 316 314 313 313 312 312 311 311 312 311 310 309 309 309 309 307 305 303 300 300 296 293 292 290 289 289 289 289 289 288 288
311 313 316 314 311 306 309 311 312 313 313 315 317 316 314 314 314 314 311 311 311 310 310 310 309 309 310 309 307 304 302 301 297 293 291 290 289 289 289 289 289 288 288 287
310 315 314 315 315 313 312 311 311 311 313 314 314 314 314 314 313 313 313 313 312 311 310 310 308 308 308 308 306 304 301 299 295 293 290 289 288 289 289 288 288 288 287 287
310 312 312 313 313 314 312 313 312 311 311 312 312 313 313 313 313 313 313 312 311 311 310 309 308 308 307 306 306 303 300 298 295 291 289 288 288 288 288 288 288 287 287 286
310 312 311 313 312 312 312 312 312 312 312 313 313 312 312 312 312 312 312 311 311 310 310 309 309 309 307 307 306 304 301 297 294 291 289 287 287 288 288 288 288 287 286 285
308 311 312 314 313 313 314 313 313 312 313 314 314 314 314 314 313 313 313 313 312 311 311 310 309 308 307 307 307 304 301 296 293 290 288 287 287 288 288 288 287 286 285 285
311 310 312 315 315 315 314 312 312 313 313 314 314 313 313 314 313 313 312 312 311 311 310 309 309 308 308 307 305 302 298 296 292 289 287 287 287 287 288 287 286 286 285 284
311 312 314 315 315 314 314 314 313 313 314 313 313 313 313 312 311 311 311 311 310 309 309 309 308 308 308 306 304 300 295 292 290 289 288 286 286 287 287 286 285 284 284 283
310 311 313 314 316 317 314 313 312 312 314 312 312 311 311 311 311 311 311 310 310 310 310 309 309 308 306 305 301 301 299 294 290 288 287 286 286 286 286 285 284 284 283 281
312 311 312 313 314 314 313 312 310 314 315 313 311 310 310 310 310 310 310 309 309 309 309 308 308 308 307 305 302 299 298 295 293 289 286 286 286 286 285 284 284 283 281 281
314 314 313 312 313 314 312 312 313 313 312 312 312 311 310 310 310 309 309 309 309 308 308 307 307 307 306 303 300 297 297 294 289 288 286 285 285 285 285 284 283 282 280 279
313 309 308 311 313 312 309 309 306 307 310 309 309 307 307 307 308 308 308 307 308 307 306 305 305 304 303 301 299 296 293 292 288 285 285 285 285 285 284 282 281 280 279 278
302 303 305 304 305 304 304 304 305 306 303 303 305 303 304 305 306 307 306 306 307 306 306 304 301 301 300 298 295 291 291 290 286 284 285 285 286 284 282 281 280 278 278 278
297 297 298 297 296 299 299 299 300 299 300 299 300 300 301 301 301 303 304 305 305 306 307 305 303 300 298 295 292 289 288 288 284 285 285 285 284 282 281 280 278 277 277 276
294 294 294 295 296 297 297 296 293 293 294 294 294 294 294 297 300 301 303 304 305 305 306 306 304 300 296 292 290 288 286 285 284 285 284 284 284 282 281 278 277 277 276 275

GFSCGP_850_thetae_015.txt.gz
Theta_e
312 310 311 312 312 311 312 311 311 314 313 314 315 313 313 314 313 312 315 316 317 317 317 317 316 315 314 313 312 310 309 307 306 305 303 301 301 301 300 300 299 299 298 298
313 312 311 312 311 312 311 312 312 312 311 311 312 313 313 311 313 315 313 315 316 315 316 316 315 315 314 313 312 310 309 307 307 305 304 303 303 301 300 299 298 298 297 298
312 312 313 313 313 313 313 312 313 312 312 310 310 311 312 312 312 315 315 316 316 315 316 315 315 314 313 312 312 310 309 308 307 306 304 302 299 298 298 298 297 297 297 297
311 312 312 312 312 312 313 311 312 312 312 313 310 314 311 312 311 311 313 316 316 316 315 314 314 314 313 313 311 310 309 308 307 305 303 303 303 303 303 302 300 298 297 296
311 312 310 311 312 311 313 312 312 313 312 312 314 313 314 311 311 311 312 314 316 316 315 314 313 313 313 312 311 310 308 307 306 306 304 304 302 301 301 301 299 297 296 296
308 311 312 311 310 310 310 311 311 310 309 313 311 312 312 310 311 311 311 314 316 317 314 313 313 313 312 311 310 309 308 307 307 306 305 304 303 302 299 298 297 297 296 296
309 309 308 310 311 309 310 310 311 311 310 314 310 310 314 311 310 310 311 315 316 316 313 313 313 313 312 311 309 308 307 307 306 306 307 306 304 302 300 299 298 297 296 295
310 310 308 308 311 310 308 311 311 310 313 314 308 310 311 310 311 314 315 317 316 312 313 314 313 312 311 310 309 308 307 307 307 307 307 306 304 302 300 298 299 297 297 296
310 310 309 308 309 310 309 311 310 311 297 308 313 311 310 310 309 307 308 308 311 313 313 313 312 311 310 310 310 310 309 309 308 307 307 307 305 303 301 299 298 296 296 295
311 311 310 307 307 307 309 308 311 310 310 308 313 310 313 312 313 312 306 306 310 312 312 311 311 311 311 311 311 310 309 309 309 307 306 307 307 304 302 299 298 296 294 293
308 311 312 306 307 309 306 309 309 309 310 314 314 313 308 310 311 311 306 308 310 311 311 311 311 311 311 310 310 309 309 308 307 306 306 306 306 304 302 300 297 295 293 292
310 311 312 311 307 306 309 309 310 312 312 309 312 313 312 309 307 308 308 310 311 311 312 312 312 312 312 311 310 310 309 308 309 308 305 304 303 303 301 299 297 295 292 291
312 311 315 314 312 306 308 307 308 309 309 312 314 313 312 311 311 308 307 309 310 312 312 312 311 312 311 311 311 310 310 309 308 306 306 303 302 301 301 300 297 294 292 291
312 310 313 317 315 313 312 311 309 310 312 313 313 312 311 311 311 311 311 311 311 311 311 311 312 312 311 311 311 311 310 309 309 307 306 304 303 302 300 299 296 294 292 290
312 311 311 312 313 313 314 314 313 312 312 314 314 313 311 310 310 310 310 311 310 310 309 310 311 311 312 311 311 310 310 309 309 307 305 304 303 301 299 298 295 293 292 290
310 314 314 314 312 312 313 313 312 312 312 313 312 313 313 313 313 312 313 312 311 310 310 311 311 311 312 312 312 312 310 309 308 307 305 303 302 300 299 296 294 292 291 289
312 311 314 316 313 312 313 313 313 312 312 312 313 312 311 312 312 312 312 312 311 311 311 311 311 312 312 312 311 311 310 309 308 306 304 303 301 300 297 296 293 292 291 289
311 310 311 315 314 316 312 310 310 311 311 311 311 311 311 311 312 312 311 311 310 311 311 311 311 312 312 310 310 310 310 309 307 305 303 302 301 298 297 294 292 290 289 289
310 312 313 315 315 314 312 310 310 311 311 310 310 310 307 303 309 310 304 305 304 303 304 304 306 308 309 309 308 308 308 308 306 305 304 302 300 298 296 293 291 290 288 287
310 311 313 314 316 316 313 308 307 309 312 300 299 299 299 299 302 302 298 300 300 299 298 299 303 305 305 305 306 307 307 307 307 306 303 300 298 297 295 293 292 289 288 286
305 308 310 312 313 311 301 299 302 311 300 296 298 297 296 297 297 296 295 295 295 296 295 295 296 296 298 301 303 303 305 305 305 304 303 299 297 295 294 292 290 289 287 285
301 300 301 301 306 309 297 296 294 294 295 296 293 293 292 292 292 292 292 292 293 293 293 293 294 296 298 296 298 304 301 301 301 300 299 297 295 294 291 289 288 286 285 284
300 294 295 297 294 291 295 292 293 294 294 293 292 290 290 291 291 291 291 292 292 293 293 294 295 295 296 296 300 300 303 302 299 297 297 295 294 291 288 287 286 285 283 283
291 291 291 290 290 290 290 290 290 290 289 289 289 288 287 288 289 290 291 291 292 292 292 292 294 293 295 296 299 301 301 301 303 299 295 293 290 289 288 284 284 284 283 282
290 290 288 289 289 289 290 290 288 287 287 286 286 286 285 285 286 286 287 287 288 289 290 291 292 292 293 293 293 294 295 298 300 301 302 299 293 289 285 284 284 282 282 283
290 290 289 289 290 287 288 287 285 284 282 282 282 282 282 281 280 280 282 282 283 284 286 288 290 291 291 292 293 294 295 295 296 295 295 293 290 285 287 285 281 280 281 281

GFSCGP_850_thetae_021.txt.gz
Theta_e
310 307 308 310 308 310 308 307 308 308 309 311 310 311 311 313 312 311 311 313 313 314 315 315 315 315 316 316 316 316 316 315 313 312 310 308 308 308 306 305 303 302 301 300
309 308 309 308 308 308 309 310 309 310 309 307 308 309 310 309 311 312 312 312 312 313 315 316 315 315 315 315 316 315 315 314 314 312 312 309 309 308 307 305 304 302 300 299
310 310 309 308 308 309 308 308 310 310 309 307 307 310 309 308 309 311 311 312 312 313 313 315 315 315 315 315 315 315 315 314 313 312 311 309 307 306 305 304 303 301 300 299
308 309 309 308 308 308 311 308 309 310 309 311 309 312 310 309 310 307 311 312 312 314 315 316 316 316 315 316 315 314 314 314 313 312 311 310 310 309 308 306 305 303 300 299
307 309 309 309 310 308 310 309 308 308 307 308 309 308 312 309 308 308 309 311 315 316 316 316 316 315 315 315 315 315 314 313 312 311 311 311 310 310 309 307 306 303 301 299
307 308 308 308 307 307 308 310 309 305 307 310 309 310 311 308 309 309 309 313 315 316 316 316 316 315 314 315 315 314 314 313 312 311 310 310 310 309 308 307 305 304 302 301
306 307 307 308 309 308 309 309 309 309 308 312 307 309 312 311 308 309 310 313 314 313 313 313 313 313 313 315 315 314 313 312 312 311 311 310 310 309 308 308 307 306 304 302
307 312 307 306 308 308 307 308 310 308 310 313 307 311 314 309 309 311 308 311 312 313 314 313 311 313 312 312 313 313 313 312 311 311 311 310 309 308 307 307 306 306 305 305
306 308 307 305 307 308 306 308 308 309 298 304 311 310 312 308 307 309 309 310 311 312 313 313 313 311 312 311 311 310 311 311 311 310 310 310 309 308 307 306 306 305 305 304
309 311 308 305 307 306 306 306 309 307 312 308 311 310 312 311 312 312 308 307 309 311 312 313 313 312 311 311 312 311 311 311 310 310 310 309 309 308 307 306 305 305 304 304
310 312 313 310 309 310 306 307 307 308 311 314 316 315 314 312 307 306 304 307 308 310 312 312 313 311 311 311 310 310 311 311 311 311 310 309 309 308 307 306 306 306 305 304
309 313 316 314 309 305 307 308 308 311 312 310 313 315 314 313 312 310 311 311 311 312 312 312 312 311 310 310 310 311 311 311 310 310 309 309 308 307 306 306 307 306 306 304
311 312 316 315 311 308 311 311 311 311 311 312 313 312 311 311 311 311 311 310 311 311 311 311 311 312 310 309 309 309 311 311 310 309 308 307 306 306 306 306 306 305 305 304
312 314 315 315 313 313 311 311 310 313 315 314 313 313 312 311 311 311 311 311 310 307 305 304 305 306 305 304 304 305 306 305 307 308 310 309 307 308 307 306 305 303 304 303
308 312 312 311 311 309 310 310 312 314 314 314 314 314 313 312 310 305 301 300 299 299 299 297 296 296 298 300 300 300 303 304 307 307 306 305 306 306 306 304 303 303 302 301
302 304 305 306 306 306 308 310 311 310 309 311 312 313 301 296 294 293 293 293 293 293 294 294 293 293 294 295 296 296 297 299 303 305 307 308 305 304 305 304 303 302 302 300
299 301 301 303 302 301 301 301 303 305 305 303 306 297 295 293 292 291 292 291 291 292 292 292 292 292 293 294 293 294 296 297 299 303 304 305 304 305 304 305 303 302 301 299
297 297 297 298 296 295 297 298 296 298 296 295 295 293 294 292 291 290 293 290 290 291 291 291 290 292 293 293 295 294 294 295 297 299 302 302 302 302 302 301 301 300 300 298
295 297 290 292 291 297 299 293 291 291 294 293 292 292 291 291 290 290 289 289 289 290 290 289 289 289 290 290 290 292 296 294 297 297 300 300 298 298 298 297 298 298 297 297
294 296 297 297 296 296 295 291 292 291 295 292 292 292 291 290 289 289 289 288 288 288 287 287 287 287 287 288 288 289 290 291 293 296 298 299 298 296 296 295 295 295 295 294
283 280 285 285 294 294 291 291 289 291 289 293 292 291 290 290 289 289 288 287 286 285 284 285 284 284 286 286 287 287 288 289 291 292 298 299 299 297 293 294 293 292 292 291
287 283 281 279 282 289 290 289 289 289 289 292 290 288 288 287 286 286 285 284 284 283 283 282 282 283 284 284 285 286 286 287 288 290 291 294 298 298 296 292 293 291 289 289
287 288 286 287 287 291 291 290 290 289 289 291 288 287 286 285 285 284 284 283 283 283 282 282 281 281 281 282 283 283 285 284 283 286 289 290 291 294 297 295 296 293 290 288
289 290 290 288 290 289 290 289 289 289 290 288 287 286 283 283 283 282 281 282 282 282 282 281 280 280 281 279 280 282 282 282 282 285 287 289 289 291 292 294 295 296 293 289
289 288 287 289 289 289 289 289 289 289 288 287 286 285 282 281 281 279 279 279 278 278 278 278 278 279 279 277 279 278 279 278 280 281 283 286 289 291 291 291 292 292 295 293
290 289 289 289 290 289 289 290 289 287 285 284 282 282 282 279 278 277 277 277 276 275 275 274 275 275 280 278 276 274 275 275 277 278 279 281 284 288 289 290 290 291 288 288

GFSCGP_850_thetae_024.txt.gz
Theta_e
309 307 308 310 307 309 307 306 306 306 307 309 309 309 309 310 311 310 311 311 312 313 315 314 314 314 314 314 314 314 315 315 314 314 313 312 312 311 309 308 306 304 303 302
307 307 308 307 307 307 307 308 308 309 308 306 307 309 308 308 309 311 311 311 312 312 313 314 314 314 314 314 314 314 314 314 315 315 314 313 313 311 311 310 308 306 303 302
309 309 307 307 307 308 306 306 308 308 307 305 305 309 307 307 308 309 310 311 311 312 313 315 315 313 313 314 314 314 314 314 314 314 313 312 310 309 309 307 306 306 304 303
307 307 308 307 307 307 310 306 308 308 308 309 307 310 309 312 311 307 309 311 312 314 314 313 313 314 313 313 314 314 313 313 313 312 312 312 313 312 312 311 310 308 306 304
308 308 308 308 308 306 308 308 307 307 307 307 308 308 311 308 309 307 307 311 313 313 312 313 314 314 315 314 314 314 314 313 313 313 312 311 310 312 312 310 310 308 306 304
306 307 306 307 306 306 307 309 307 304 306 309 308 309 309 308 310 310 309 312 312 313 313 314 314 314 314 313 313 314 314 312 312 311 311 312 311 310 310 310 309 308 306 304
306 306 306 307 308 307 308 307 308 308 308 312 307 307 312 310 308 309 309 312 313 311 312 313 313 314 314 313 312 312 312 312 311 309 308 309 309 309 309 309 309 309 307 305
307 315 306 305 307 308 306 307 310 311 309 314 307 309 311 307 309 309 308 311 310 311 311 312 313 313 313 313 312 311 310 311 310 310 308 307 307 307 308 308 308 308 308 307
307 308 305 305 306 307 306 308 307 310 300 305 311 311 310 306 307 307 309 311 308 311 313 311 312 312 313 312 312 310 309 308 309 309 309 309 308 307 308 308 308 307 307 306
309 314 308 306 306 306 306 305 309 308 313 312 312 310 313 311 311 309 305 305 310 312 312 312 309 311 311 311 310 310 310 310 310 309 309 308 309 309 308 308 308 307 307 306
312 312 313 312 308 308 306 307 307 307 311 316 317 315 313 310 308 307 306 309 310 309 307 308 309 309 309 309 309 306 305 305 305 305 306 306 305 304 306 307 307 307 306 305
311 315 315 314 310 306 307 310 309 313 312 309 312 314 312 311 310 308 305 302 304 303 303 303 302 302 303 302 304 306 306 304 304 305 305 304 304 304 304 304 305 305 306 305
311 314 316 313 309 307 310 309 309 311 312 315 315 314 311 311 309 298 298 297 297 296 297 298 299 296 296 297 297 298 300 302 303 304 305 305 304 304 304 305 304 303 303 303
311 313 315 316 313 311 311 311 311 310 311 313 313 314 313 305 299 295 294 293 293 293 292 292 293 293 294 294 294 295 295 296 297 300 302 304 305 305 304 303 303 303 303 303
307 310 311 310 306 306 307 307 306 306 307 308 307 310 308 296 293 293 294 292 291 291 291 291 291 291 291 292 294 293 292 295 295 295 297 301 304 305 305 305 303 301 301 301
300 301 302 302 302 302 302 301 302 301 301 304 306 305 294 293 292 292 293 292 291 290 291 290 289 289 289 289 290 292 291 291 294 297 294 296 300 302 303 302 302 303 302 299
297 296 294 298 298 295 295 295 296 296 297 297 300 294 292 291 291 290 291 291 291 289 289 290 288 287 287 287 287 287 289 289 289 290 293 293 297 298 298 300 301 300 301 299
294 294 290 294 287 289 294 294 293 295 294 293 292 291 291 291 290 289 289 289 288 288 287 287 286 286 286 287 286 286 287 288 288 289 290 294 293 297 298 296 295 297 297 297
294 294 287 287 282 293 295 291 290 291 292 290 291 293 292 290 289 288 288 288 288 287 287 286 285 284 284 285 285 285 285 286 287 287 287 289 292 293 296 298 296 293 292 294
293 294 294 282 295 291 292 289 291 290 286 288 289 288 288 290 286 287 288 288 287 287 286 285 285 284 284 285 284 284 284 284 284 285 286 286 288 290 293 294 295 294 292 291
280 278 288 288 288 287 289 289 289 286 288 288 291 290 290 289 287 288 288 287 286 286 285 284 284 283 283 283 283 283 283 284 284 284 284 285 286 287 290 293 294 291 291 293
287 282 279 275 280 284 288 289 288 289 290 289 289 290 290 288 288 287 287 286 285 285 284 284 283 283 283 283 281 281 282 282 282 283 283 284 285 285 287 289 291 293 290 289
286 286 283 284 284 289 290 290 290 291 289 289 289 289 290 288 287 286 285 285 284 282 282 282 281 282 283 282 281 281 281 280 281 282 283 282 283 284 284 286 289 290 291 289
289 289 289 289 290 290 290 290 290 290 289 289 289 289 287 286 285 283 283 282 281 281 280 279 279 279 280 280 278 278 278 276 276 278 280 280 281 281 282 284 286 288 290 290
289 288 287 289 290 290 290 290 290 289 289 289 288 286 285 283 283 281 280 279 278 278 278 277 276 275 276 276 275 274 274 273 274 275 277 277 278 279 280 280 283 285 288 289
290 290 289 289 290 289 289 289 289 289 288 287 286 286 283 281 279 277 277 277 276 275 275 274 273 272 272 271 271 270 270 270 270 272 274 274 273 276 277 278 280 282 284 287

GFSCGP_850_thetae_027.txt.gz
Theta_e
309 307 308 309 307 306 307 305 305 305 306 307 309 309 308 308 308 309 310 310 310 310 313 313 312 312 312 313 313 313 313 313 313 313 313 313 313 313 313 312 311 309 306 305
306 307 307 307 306 306 307 308 308 308 307 304 306 308 309 309 309 310 310 310 310 311 313 312 313 313 313 313 314 314 313 313 313 313 313 313 313 313 312 311 310 309 307 305
308 309 307 306 307 307 305 306 308 307 306 305 304 308 307 307 307 309 312 310 311 311 312 312 312 313 313 313 313 313 312 313 313 312 311 312 311 311 311 310 310 309 307 306
306 306 307 306 306 306 309 306 307 306 307 308 307 310 311 312 311 309 309 311 311 311 311 312 313 314 314 313 312 312 312 311 311 311 311 311 312 313 313 313 311 310 308 307
309 306 307 307 308 305 308 307 307 306 306 307 307 308 307 307 309 309 309 310 311 311 311 312 313 313 313 313 313 312 311 311 310 309 310 310 310 310 310 309 310 310 309 306
305 306 305 307 306 305 307 308 305 303 305 308 308 309 309 309 310 310 310 310 310 310 311 312 311 311 311 312 313 312 311 310 309 308 307 308 308 308 309 309 308 308 308 307
305 305 306 306 308 306 307 307 309 310 309 313 306 307 310 309 306 309 308 310 308 310 310 309 309 311 311 312 312 310 310 308 306 306 307 307 307 306 306 307 307 307 307 307
306 315 305 304 307 308 306 308 312 316 310 317 306 310 310 307 308 308 309 308 308 306 306 306 307 308 309 310 311 309 308 306 305 304 303 304 304 303 304 305 305 305 306 307
314 315 305 303 305 307 306 308 308 310 302 305 311 310 309 305 306 306 305 303 302 302 303 303 305 305 305 305 306 307 306 305 303 302 304 303 302 302 302 302 302 303 304 305
309 313 310 306 305 305 306 306 309 308 314 315 313 311 312 311 310 304 301 300 300 301 299 298 298 299 301 302 302 302 303 303 302 303 303 303 304 303 302 301 302 302 303 303
310 313 313 312 307 307 306 307 307 307 314 317 316 314 309 306 300 300 299 298 297 298 298 298 298 298 299 299 299 300 301 301 302 302 302 303 303 303 302 302 302 301 301 302
312 315 315 315 311 305 307 308 309 313 313 310 313 314 312 301 299 296 295 294 294 294 294 295 295 295 296 296 297 297 298 298 298 298 298 300 302 302 302 302 301 301 301 301
311 313 315 313 309 307 309 309 309 312 312 315 316 314 308 306 298 294 293 292 292 292 292 292 293 293 292 292 293 293 295 297 297 297 298 298 298 300 301 301 301 300 299 299
309 311 314 315 312 310 312 311 309 310 310 311 310 309 307 306 299 293 294 292 291 291 290 290 290 290 290 290 290 290 291 290 294 295 295 297 297 296 298 299 299 299 298 297
306 309 308 309 309 304 304 304 303 304 304 305 305 304 304 298 293 292 291 292 293 292 289 289 289 288 288 288 289 289 288 288 288 290 293 293 293 295 296 297 298 298 297 297
300 302 301 297 300 301 300 299 299 300 300 300 301 301 293 292 291 290 289 290 291 290 288 288 287 287 287 286 285 285 286 286 286 287 288 289 291 292 294 295 296 297 297 296
297 298 296 300 299 294 296 295 296 295 295 296 297 294 289 289 290 290 289 289 290 288 288 287 287 286 285 285 285 285 285 285 286 286 285 285 286 287 289 291 294 296 296 297
295 295 287 292 284 287 293 291 295 296 295 291 288 287 289 290 290 289 289 289 288 288 287 287 287 286 285 285 285 285 285 285 285 285 285 285 285 285 285 286 288 290 295 296
293 293 284 285 282 290 292 291 290 291 291 289 288 289 291 291 290 289 289 288 288 288 287 287 287 286 285 285 284 284 284 284 284 284 284 284 284 284 284 285 285 287 289 293
292 293 290 275 285 285 290 288 290 287 286 282 287 285 288 290 286 287 288 288 288 288 288 287 286 285 285 284 283 283 283 284 284 284 284 284 284 284 284 284 284 284 285 288
280 281 292 292 291 288 289 289 289 285 287 290 290 289 289 288 289 289 289 288 288 288 287 286 285 285 285 284 282 282 281 282 281 281 283 284 284 284 284 283 284 284 284 285
287 281 277 273 278 286 286 288 288 289 290 289 289 289 289 289 289 289 289 288 287 286 286 285 284 284 284 283 282 282 281 280 278 278 280 281 282 283 283 283 283 283 282 283
287 287 284 285 284 287 289 290 290 290 289 289 289 289 289 288 288 289 288 286 285 284 283 282 281 281 282 281 280 278 280 276 276 275 275 276 277 279 281 280 281 280 280 281
288 288 288 289 289 289 289 290 290 290 290 290 289 289 289 288 288 286 285 284 283 282 280 278 278 277 278 278 276 275 274 273 272 272 273 273 272 274 276 278 278 278 278 280
290 287 287 289 289 289 289 290 290 290 289 289 288 287 286 285 284 282 282 280 279 278 277 275 274 274 273 273 272 271 270 269 269 269 268 268 268 268 270 272 274 274 276 278
290 290 290 289 290 289 290 289 289 289 288 287 286 285 284 282 281 279 279 277 276 275 273 272 271 269 269 268 267 267 266 265 265 265 265 265 265 265 266 267 271 273 273 276

GFSCGP_850_thetae_030.txt.gz
Theta_e
311 313 314 315 314 315 313 313 313 314 314 312 313 314 313 312 312 312 313 313 313 313 312 311 311 311 312 312 312 312 312 312 311 311 311 312 312 313 314 314 314 313 312 310
311 313 314 313 311 311 312 313 314 314 313 310 313 313 313 313 313 313 313 313 313 312 311 311 312 311 311 311 310 311 311 311 311 310 310 310 310 310 312 313 313 313 312 310
314 315 311 311 312 312 313 313 314 314 313 311 311 314 314 314 312 313 312 312 311 310 311 311 310 311 312 312 312 311 311 310 310 310 309 308 308 308 309 309 311 312 312 311
312 311 310 310 311 312 314 314 312 311 311 313 311 315 317 316 316 315 312 310 310 310 309 308 307 309 310 311 312 312 311 310 309 308 307 308 307 307 308 308 308 309 310 311
314 310 310 311 312 310 313 309 310 310 311 311 313 313 319 314 314 314 311 310 308 307 306 305 304 306 308 310 311 309 310 310 309 307 306 305 304 305 305 304 306 307 307 307
310 306 308 311 308 309 308 310 311 309 311 316 317 315 316 315 314 313 310 307 306 304 303 302 303 306 307 307 308 307 307 307 306 306 305 305 305 303 302 303 303 304 304 306
316 316 308 307 310 307 309 311 316 321 319 321 311 315 315 315 313 309 307 305 303 302 301 300 301 302 302 304 304 305 305 305 305 305 303 302 303 303 303 302 302 302 302 303
317 319 310 308 310 314 311 312 320 324 323 323 319 320 319 313 307 306 305 304 303 301 300 302 302 302 302 302 302 302 303 303 303 303 304 304 303 302 301 301 301 301 302 302
317 317 309 305 307 309 310 311 313 314 316 317 317 317 313 309 307 306 304 303 301 299 298 297 296 298 301 302 301 302 301 300 300 301 301 301 302 303 303 301 300 300 301 300
314 318 314 309 306 307 310 311 314 312 318 319 317 317 316 311 308 306 304 301 299 297 297 296 295 296 297 299 299 298 298 299 299 298 298 299 299 301 303 302 301 299 299 299
311 314 316 312 312 313 309 309 309 311 315 319 319 316 313 310 306 305 301 298 297 296 295 295 298 299 298 298 299 298 298 297 298 299 298 297 297 298 298 300 300 301 301 299
311 314 316 314 313 311 309 312 312 314 315 314 315 315 312 306 302 299 297 295 294 294 294 293 292 293 294 294 295 295 295 295 294 294 296 297 297 296 296 297 298 299 299 301
311 315 316 316 313 310 311 312 311 313 313 316 317 316 307 302 298 296 295 294 293 293 291 291 291 290 290 290 290 290 290 290 291 291 291 291 293 295 296 294 295 297 298 298
309 310 313 314 312 311 313 311 308 309 312 313 313 311 308 307 305 298 295 293 293 292 289 289 290 289 289 288 287 287 287 288 288 288 288 288 288 288 289 291 291 292 295 296
306 309 308 308 308 308 307 306 305 305 305 306 307 306 305 304 296 293 291 291 292 292 289 288 288 288 287 287 287 286 286 286 286 286 286 286 286 287 287 287 288 288 289 291
300 305 303 302 303 303 303 301 301 301 301 300 301 302 300 294 293 293 291 290 290 290 289 289 288 287 287 286 286 286 286 286 286 285 285 286 286 286 286 285 286 286 286 286
298 300 301 302 301 298 299 299 300 300 299 299 298 297 293 293 293 292 291 290 290 290 289 288 288 288 287 286 286 285 285 285 285 285 285 285 285 285 285 285 285 285 285 285
297 298 299 299 293 297 298 295 296 296 297 296 295 293 293 292 291 291 290 290 290 290 289 289 288 287 287 286 285 285 285 284 284 285 285 285 285 285 285 285 285 285 285 285
295 295 295 295 296 295 294 294 294 295 295 295 295 293 291 291 291 291 290 289 289 289 288 288 288 288 287 286 284 284 285 284 284 284 283 283 284 284 285 285 285 285 284 284
292 294 295 287 293 293 294 292 290 290 294 290 290 291 291 290 291 291 290 290 289 288 288 288 288 288 287 286 284 283 282 281 281 282 282 281 282 282 283 284 284 285 284 284
292 292 294 295 294 294 294 291 290 292 293 291 291 290 290 291 291 290 290 289 289 289 288 288 286 286 286 285 283 282 280 279 279 278 279 280 279 278 279 280 282 282 283 284
291 292 291 288 291 292 290 289 291 293 291 291 290 290 290 290 290 289 289 289 289 288 287 287 286 285 285 282 280 279 279 278 277 276 275 275 274 274 274 274 276 278 279 280
291 292 291 290 292 291 289 291 291 291 291 290 290 290 290 289 289 289 288 288 287 285 285 285 283 282 281 280 277 276 276 274 273 273 272 271 271 270 270 270 271 271 272 274
291 291 290 291 291 291 291 291 290 290 290 290 290 289 289 288 287 287 286 285 284 283 281 280 280 279 279 277 275 273 272 272 270 269 268 267 267 267 266 267 267 268 269 271
291 290 290 291 291 290 290 290 290 290 290 289 289 288 287 286 285 284 283 282 281 279 278 276 275 275 276 274 274 272 271 268 266 265 264 263 264 264 264 265 265 266 267 269
291 291 291 291 291 291 290 290 290 289 289 289 288 286 285 283 283 282 281 278 277 276 275 275 274 273 273 272 271 271 268 266 264 263 263 263 262 263 263 263 264 265 267 268

GFSCGP_850_thetae_033.txt.gz
Theta_e
313 315 315 317 317 317 317 316 317 317 317 317 317 317 316 315 315 316 316 316 315 315 313 311 310 310 310 309 309 309 310 310 310 310 311 311 313 315 315 316 316 315 315 314
314 315 316 316 316 314 315 316 316 317 317 317 316 315 315 315 316 316 316 315 315 313 312 310 308 309 308 308 309 309 308 308 309 309 310 311 313 314 314 314 314 314 314 314
316 318 317 314 315 315 316 316 316 316 316 314 315 315 317 318 319 316 313 313 312 310 309 308 308 309 310 309 309 309 308 307 306 307 307 308 309 309 309 310 310 311 312 312
317 313 312 313 314 314 315 315 314 314 314 315 313 316 317 319 319 314 312 310 309 307 306 305 307 309 308 308 307 307 308 309 308 306 305 305 307 307 306 306 306 307 307 308
315 312 312 313 313 314 314 312 312 312 313 314 315 316 319 320 317 313 311 309 306 305 304 302 302 303 304 304 304 304 306 307 307 306 305 305 304 304 304 305 305 304 304 304
313 310 311 314 312 312 311 311 313 314 314 319 319 320 320 317 314 312 309 307 305 304 302 301 301 303 304 304 306 306 304 304 305 305 304 303 302 302 303 303 303 302 302 302
317 316 318 311 313 312 310 313 321 323 321 322 316 321 318 316 312 311 308 306 304 303 302 300 300 299 300 302 303 303 303 304 304 303 303 302 302 302 302 301 301 301 301 301
318 317 316 311 313 315 314 316 321 325 323 323 319 320 320 313 309 308 307 305 303 302 300 299 298 297 297 296 296 297 301 303 303 302 301 301 301 302 302 302 301 300 300 299
317 317 312 309 310 311 315 315 315 321 319 319 317 317 317 310 309 308 307 305 302 300 299 298 297 296 295 295 295 296 297 298 299 300 300 300 299 299 299 300 301 301 301 300
315 318 317 313 308 309 309 309 315 315 319 319 316 316 317 313 311 309 306 303 301 299 298 297 296 295 294 295 295 295 295 295 294 294 293 295 298 299 298 298 298 299 300 301
315 315 316 313 313 314 312 311 310 311 315 318 318 316 315 312 310 308 303 300 299 298 297 296 295 294 293 292 291 291 291 291 291 292 292 292 291 290 293 296 296 297 297 297
313 314 315 314 312 312 313 313 313 314 314 314 315 315 315 307 306 302 301 299 297 295 294 293 293 292 291 291 291 290 290 290 290 289 289 289 288 288 288 288 289 291 294 296
312 313 314 312 308 311 313 312 312 313 313 316 318 317 310 308 303 299 299 296 295 294 292 291 291 291 290 289 289 288 288 288 288 288 288 287 286 286 286 286 286 287 288 289
309 311 312 313 308 310 311 310 311 311 312 311 311 311 309 308 308 306 299 296 294 294 291 290 290 289 289 289 288 287 287 287 287 287 286 286 286 286 286 286 286 286 286 286
307 308 307 308 308 307 307 306 307 307 307 308 307 307 306 305 302 297 294 292 293 293 292 290 289 289 288 287 287 287 287 287 286 286 286 286 286 286 286 286 286 286 286 286
302 303 304 303 303 303 304 303 304 304 304 303 303 304 304 299 296 296 295 293 291 291 291 290 289 289 289 288 288 287 287 287 286 286 286 286 286 286 286 286 286 286 286 285
300 300 301 301 300 300 300 300 300 301 301 301 301 300 296 295 294 293 292 292 291 291 291 290 289 289 289 288 288 288 287 287 286 286 286 286 286 286 286 286 286 285 285 285
299 300 300 300 299 299 299 298 296 296 297 298 298 296 293 292 292 292 292 291 291 291 290 290 290 289 289 288 287 286 286 285 284 285 285 285 284 284 285 285 285 285 285 285
296 297 298 297 298 297 296 296 295 295 296 297 298 294 292 291 291 291 292 291 291 291 290 289 289 289 287 286 285 285 285 283 282 281 281 281 281 281 282 283 283 283 283 283
293 295 297 295 295 294 295 294 292 292 294 295 295 293 292 291 291 292 291 291 290 290 290 289 289 288 286 285 284 283 282 281 280 280 279 279 279 279 278 278 278 279 280 281
294 294 296 296 296 295 294 293 291 293 294 294 292 292 291 292 292 291 291 290 290 290 289 289 287 287 286 284 284 283 280 279 278 278 277 276 276 276 275 275 275 275 275 274
292 293 294 293 294 293 293 292 292 294 293 292 292 292 291 291 291 290 290 290 289 289 288 287 287 287 286 285 282 282 281 277 276 275 275 274 273 272 271 271 271 270 271 271
291 293 293 293 293 293 291 292 292 292 292 292 291 291 291 291 290 290 290 289 288 287 286 285 285 285 284 281 279 279 278 276 275 274 272 271 270 269 268 267 267 267 267 268
292 292 292 293 292 292 291 291 291 291 291 291 291 291 290 290 289 289 288 287 286 285 284 284 283 282 281 280 278 277 276 274 273 272 270 268 266 265 265 265 265 265 265 266
293 292 292 292 292 292 291 291 291 291 290 290 290 290 289 288 288 287 286 284 284 283 282 281 280 280 279 277 277 276 274 272 270 268 266 265 265 264 264 264 264 264 265 265
292 292 292 292 292 292 291 291 291 291 290 290 290 288 288 287 285 284 283 283 281 280 279 279 279 277 277 276 276 274 272 270 268 265 264 264 263 263 264 264 264 265 266 267

GFSCGP_850_thetae_036.txt.gz
Theta_e
313 313 313 314 314 315 315 314 314 315 315 314 315 315 314 315 315 314 314 315 312 310 309 309 308 308 308 309 310 310 311 311 311 311 312 314 317 318 318 320 320 320 319 318
313 314 314 315 315 314 314 314 313 315 315 313 313 313 313 313 313 314 314 313 310 308 308 306 306 307 306 306 307 308 308 309 308 310 312 313 314 314 316 316 316 317 317 316
315 317 316 316 315 315 315 315 315 314 313 312 311 312 313 315 314 311 310 308 307 306 304 303 304 305 307 306 304 306 307 307 307 307 309 309 311 312 313 313 312 312 313 314
317 312 313 313 313 314 314 314 313 313 312 312 311 311 314 314 310 309 308 306 305 304 303 303 303 304 304 306 307 306 306 306 306 306 306 306 307 307 306 306 306 306 306 308
315 312 312 313 313 313 314 311 312 311 311 312 312 312 314 314 311 309 307 305 304 303 303 303 304 304 305 306 306 306 306 307 305 305 305 304 304 305 305 305 305 305 304 304
312 311 311 314 313 312 311 310 310 310 311 314 318 318 316 312 311 308 306 305 304 302 302 302 303 304 304 305 305 305 305 304 303 303 303 304 303 302 302 303 303 303 302 302
314 312 312 314 314 311 310 311 316 318 315 317 316 317 318 311 310 308 306 304 303 301 300 299 299 300 301 302 302 302 302 303 303 303 303 302 302 302 302 302 301 300 300 300
318 316 314 310 313 313 311 314 318 319 319 317 314 316 318 309 308 307 305 304 302 300 299 298 297 297 298 298 298 299 299 299 300 300 301 300 300 299 298 299 300 300 300 300
315 316 309 309 309 310 313 315 313 318 315 319 316 314 310 308 307 306 305 302 300 299 298 298 297 296 296 296 296 296 296 296 296 295 296 297 298 299 299 298 297 297 297 298
315 317 316 310 309 308 309 308 314 314 316 310 312 312 313 311 309 306 303 301 300 298 297 296 295 294 293 292 291 291 290 289 289 289 290 291 291 293 294 295 295 296 294 293
315 316 314 314 312 314 310 311 309 310 312 314 314 311 309 309 307 303 300 299 298 297 296 295 294 293 292 290 289 289 288 288 288 287 287 287 288 288 289 289 290 291 291 290
313 314 313 312 310 309 310 311 311 313 314 310 312 312 304 303 301 301 301 299 297 296 293 292 292 291 290 289 288 288 287 287 287 286 286 286 286 285 285 286 286 286 286 287
312 311 310 308 307 310 311 310 310 311 310 312 314 313 307 302 301 302 303 300 297 295 292 291 291 290 289 289 288 288 288 287 287 287 287 287 286 286 286 286 286 286 286 286
308 310 307 305 306 307 306 306 306 306 310 308 308 307 305 304 303 302 303 302 296 294 293 291 290 289 288 288 289 289 288 288 287 287 287 287 287 287 286 286 286 286 286 286
307 306 306 306 306 304 303 303 305 305 304 304 303 302 303 303 300 296 294 293 293 293 293 292 291 290 289 289 289 289 289 289 289 288 288 287 287 287 287 286 286 286 286 286
302 297 299 295 301 302 302 301 301 301 301 301 301 301 301 297 296 296 295 293 292 291 291 291 290 289 289 289 289 288 288 288 288 288 288 288 288 287 286 286 286 286 285 285
300 297 292 292 299 297 293 297 299 299 299 299 298 298 293 295 294 293 292 292 292 292 291 290 290 290 289 289 289 288 288 287 286 286 287 287 287 286 285 285 285 285 284 284
298 295 294 290 290 291 295 297 295 294 294 293 292 291 291 292 292 291 291 292 292 291 291 290 290 289 289 289 289 287 287 286 285 284 284 283 282 283 283 284 283 283 282 282
297 297 293 290 289 294 295 294 294 294 292 293 293 293 293 291 291 291 292 291 291 290 290 290 290 289 289 289 287 286 285 284 283 282 281 280 279 279 279 279 279 279 278 279
292 294 294 286 289 287 292 291 292 292 289 290 294 290 291 291 287 288 291 291 290 290 290 290 289 289 289 287 286 285 284 282 281 280 279 278 277 276 276 276 275 275 274 275
287 287 292 293 294 291 293 291 292 288 290 294 295 292 291 289 291 291 291 291 290 290 290 289 289 288 287 286 285 283 281 280 279 279 278 278 277 275 274 273 273 272 271 270
290 287 286 285 286 290 293 291 291 292 293 292 293 291 292 291 291 291 291 290 290 289 289 289 288 287 286 285 283 282 281 279 278 278 277 277 276 275 273 271 270 268 267 267
288 289 287 289 288 292 292 292 292 292 292 292 292 292 291 291 291 290 290 290 289 289 288 287 287 287 285 282 281 281 280 279 278 277 275 274 273 272 270 268 267 266 266 265
291 292 289 290 290 291 291 291 292 291 291 291 291 291 290 290 290 290 290 289 288 287 287 286 286 284 282 281 281 279 278 277 277 275 274 272 270 269 268 267 266 265 265 264
291 291 289 290 291 291 292 292 291 291 291 291 291 291 290 290 290 289 288 288 287 287 285 285 283 281 281 280 279 278 277 275 275 273 272 271 269 267 267 266 266 265 265 265
292 291 291 291 291 291 291 291 291 291 291 291 290 290 290 290 289 287 286 286 286 285 283 281 281 281 280 280 279 277 275 274 273 272 271 269 266 266 266 265 265 267 266 267

GFSCGP_850_thetae_042.txt.gz
Theta_e
311 308 309 308 308 309 310 311 311 310 310 311 311 310 310 308 309 306 304 304 303 302 302 303 304 305 307 308 310 312 314 315 316 318 320 321 322 322 323 322 321 321 321 321
310 310 310 309 309 310 310 311 310 310 310 311 310 309 306 306 305 304 303 302 301 301 302 302 303 304 305 306 307 308 309 309 310 311 312 313 316 319 319 319 319 318 318 317
310 312 311 311 313 313 312 312 312 313 309 309 309 309 309 305 304 302 301 300 300 300 300 301 302 302 303 304 304 305 305 306 307 308 310 311 313 313 314 315 316 316 315 314
311 311 312 312 313 312 313 311 311 311 310 310 308 312 309 307 304 302 300 300 300 300 301 301 303 304 304 303 303 304 304 304 304 305 305 307 308 308 307 306 307 307 307 306
314 311 311 312 312 310 312 310 311 310 309 309 308 309 308 306 306 302 300 299 300 300 301 302 302 302 302 303 303 303 304 305 304 304 304 303 303 302 302 303 304 304 304 304
310 310 309 310 310 309 308 309 308 306 306 310 308 310 311 308 307 302 300 299 300 299 300 300 300 301 301 301 301 301 301 301 301 302 302 303 302 301 302 302 301 301 301 301
312 310 309 310 312 308 308 309 312 313 310 313 312 310 311 305 305 302 299 299 298 299 299 299 300 301 301 301 301 301 300 300 299 299 299 298 298 298 299 299 299 299 298 298
315 317 310 309 312 313 308 309 311 310 313 312 311 315 312 302 301 301 300 299 299 299 299 300 302 301 301 300 299 299 298 297 295 294 294 293 293 293 291 291 291 291 292 292
314 315 308 308 307 309 310 311 309 310 309 314 312 308 305 302 299 299 298 299 300 299 300 301 300 299 297 296 294 293 292 293 293 292 291 290 290 289 289 289 288 287 288 288
313 314 312 309 309 307 309 308 311 308 307 312 311 311 310 304 301 298 297 299 300 301 301 300 298 297 296 294 292 291 291 290 289 289 289 289 288 288 288 288 288 287 287 287
311 311 311 310 311 310 306 308 308 311 308 306 305 309 306 305 301 299 298 301 302 303 301 299 297 295 293 291 290 290 290 290 290 290 289 289 289 288 288 288 288 288 288 288
311 310 307 310 308 307 308 307 307 311 309 306 309 310 305 304 301 300 301 303 303 301 299 297 296 294 293 290 289 289 289 289 289 289 289 288 288 288 288 288 288 288 288 288
310 307 301 305 305 307 308 308 308 308 305 304 311 308 302 300 300 301 302 303 303 300 298 296 294 293 291 289 289 289 289 289 288 288 288 288 288 288 288 288 287 287 286 286
309 304 304 308 303 305 305 306 305 302 299 300 307 304 303 301 300 300 300 300 301 301 298 295 293 292 290 289 289 289 289 289 288 288 288 288 288 288 287 287 286 285 285 284
306 304 306 304 304 304 303 303 303 303 302 301 302 300 301 299 297 299 299 299 300 296 294 293 292 292 290 291 290 290 289 289 289 289 288 288 288 287 287 286 284 284 284 283
301 299 298 295 299 302 301 300 299 301 302 301 301 301 300 299 297 295 295 296 299 297 294 293 293 292 291 290 290 290 289 289 289 289 288 288 288 287 285 284 284 284 283 283
300 296 294 299 296 294 293 294 297 296 296 296 295 296 292 294 294 294 295 293 293 292 291 291 291 290 290 290 290 289 289 289 289 288 288 287 287 285 284 283 283 282 282 282
299 296 296 295 287 291 295 292 293 294 295 292 291 288 291 293 294 293 292 292 291 291 291 291 290 290 290 290 289 289 289 289 288 288 287 286 284 283 283 282 281 281 281 281
297 297 295 296 288 291 295 293 292 293 292 288 289 288 293 293 290 290 291 291 291 290 290 290 290 290 290 289 289 289 289 288 287 287 285 283 283 282 281 280 280 280 280 280
293 296 295 281 287 290 291 289 291 290 289 287 290 287 291 289 285 287 291 291 291 290 290 290 290 290 290 289 289 288 288 287 286 284 283 282 282 280 280 280 279 279 278 277
284 285 297 294 292 287 289 290 291 288 290 291 292 293 291 287 291 293 292 291 291 290 290 290 290 290 289 289 288 287 287 285 283 282 282 282 280 280 280 279 278 277 276 275
288 287 286 285 288 289 289 289 290 291 292 293 292 292 292 292 292 291 291 291 291 290 289 289 289 289 288 288 287 287 286 284 282 282 282 280 279 279 278 278 278 276 275 273
289 288 286 288 288 290 290 293 293 293 292 292 292 292 291 291 291 291 291 291 291 290 290 289 289 288 287 287 286 286 284 282 282 282 281 280 279 278 277 277 277 275 273 272
289 288 288 287 289 289 292 293 293 292 292 291 291 291 291 291 291 291 290 290 290 290 289 289 288 287 286 285 285 284 282 281 281 281 280 279 278 278 277 276 275 273 272 271
289 288 287 287 290 290 290 291 292 292 291 291 291 291 291 291 291 290 290 290 290 289 288 288 287 285 284 283 283 283 280 280 280 280 279 278 277 277 276 275 274 273 272 270
290 291 290 289 291 291 291 292 292 292 291 291 291 291 291 291 291 290 290 290 289 288 288 286 285 283 283 283 282 280 279 279 279 279 278 277 276 276 275 274 273 274 273 271

GFSCGP_850_thetae_045.txt.gz
Theta_e
310 307 307 308 307 309 309 309 310 309 310 311 310 309 308 305 304 302 301 300 300 300 300 302 304 305 307 308 309 312 314 316 318 321 323 323 323 323 320 320 320 320 320 320
309 308 308 308 307 308 309 311 310 309 309 309 309 309 304 303 302 301 300 299 299 300 301 302 303 304 305 305 306 307 308 309 310 311 313 314 317 319 316 316 317 317 316 316
310 312 310 309 309 311 311 310 311 312 310 308 308 308 307 303 301 300 300 299 299 300 301 302 303 304 305 305 306 306 306 306 306 307 310 311 312 312 314 314 314 312 312 312
309 310 311 310 312 311 314 310 311 311 310 311 307 311 308 304 301 299 299 299 299 300 301 301 301 302 302 303 303 304 305 305 305 305 305 305 305 305 305 305 304 305 305 305
313 311 311 312 312 311 313 309 309 309 308 308 308 309 306 304 303 300 298 299 299 299 300 300 300 301 301 302 302 303 303 303 303 303 303 303 303 302 301 302 302 302 301 301
311 309 309 311 308 309 307 309 307 305 306 310 308 309 309 306 305 300 299 299 299 299 299 300 299 300 301 301 302 302 301 301 301 302 302 301 301 300 300 299 299 299 298 298
310 310 309 310 310 308 308 311 314 311 309 313 308 308 308 305 301 301 299 298 299 299 299 299 300 301 301 300 300 300 299 299 297 296 297 297 297 296 295 294 293 293 293 292
313 316 309 309 310 311 308 311 311 307 312 312 309 314 312 301 299 300 300 299 298 299 299 300 301 301 300 299 298 297 296 296 294 293 292 291 291 291 290 289 289 289 289 289
314 315 307 307 307 309 309 310 308 309 298 309 310 309 304 300 298 298 298 298 299 299 300 301 300 299 298 296 295 294 294 293 292 292 291 291 290 290 289 289 288 288 288 288
312 314 310 308 308 306 308 307 311 307 307 306 309 310 310 302 300 297 296 298 299 300 300 300 299 298 297 295 293 292 292 291 291 290 290 290 290 289 289 289 289 288 288 288
310 311 311 309 309 309 307 308 307 309 305 304 303 307 304 304 301 298 297 300 301 301 301 300 299 298 296 294 292 290 290 290 290 290 289 289 289 289 289 289 288 288 288 288
310 309 307 310 307 305 306 307 307 311 308 305 307 309 303 303 301 299 299 302 303 302 302 300 299 298 296 293 291 290 290 289 289 289 289 289 288 288 288 288 288 287 287 286
310 307 303 306 306 306 308 307 305 305 303 304 307 308 301 300 300 301 301 303 303 302 300 299 297 296 295 293 290 290 290 289 289 289 289 288 288 288 288 288 287 286 285 285
309 305 306 312 306 305 306 307 305 302 300 303 308 306 302 301 300 299 300 301 299 300 301 300 297 295 294 291 289 289 289 289 289 289 289 288 288 288 288 287 286 285 285 284
307 306 304 303 304 303 303 303 304 303 304 305 305 304 303 301 300 301 302 299 298 299 299 299 296 294 292 290 290 290 290 289 289 289 289 288 288 288 288 287 285 284 284 283
300 301 300 304 300 302 304 302 303 303 304 302 302 303 302 299 300 300 299 298 297 297 298 296 294 293 292 292 291 290 290 289 289 289 289 288 288 288 288 286 284 283 283 282
300 299 300 308 295 296 299 297 300 300 300 302 303 302 291 294 294 296 296 296 295 296 297 295 293 293 293 292 290 290 290 289 289 289 288 288 288 288 287 284 283 283 282 282
300 300 300 298 293 301 300 292 294 295 295 292 292 289 292 295 294 294 294 294 294 293 292 291 291 291 291 290 290 290 290 289 289 288 288 288 288 287 284 283 282 282 282 282
297 299 294 301 295 297 298 294 292 292 293 291 292 290 293 292 291 292 293 292 292 292 291 291 290 290 290 290 289 289 289 289 289 289 288 288 287 284 283 282 282 281 282 282
296 298 303 288 295 297 294 289 291 291 290 286 290 288 290 290 287 288 292 292 291 291 290 290 290 290 290 290 289 289 289 289 288 288 288 287 284 283 282 282 281 281 281 280
289 292 299 294 298 291 290 290 291 289 291 289 292 293 290 287 291 292 293 292 291 291 291 290 290 289 289 289 290 289 289 288 288 287 286 284 283 282 281 281 281 280 280 279
290 290 291 289 294 292 289 289 291 292 292 293 292 292 291 292 292 292 292 291 291 291 291 290 290 289 289 289 289 289 288 287 286 285 285 282 282 281 281 280 280 279 279 278
290 290 289 290 289 290 290 293 294 294 294 293 292 292 291 292 292 291 291 291 291 290 290 290 290 289 289 289 288 288 287 286 285 285 282 281 281 280 280 279 279 279 277 276
288 287 288 288 289 289 291 293 293 293 293 293 293 292 291 291 291 291 291 290 290 290 290 290 289 289 289 288 287 286 285 284 284 283 282 280 280 279 278 278 278 277 276 275
289 288 287 287 289 290 291 292 292 292 293 292 292 291 291 290 290 290 290 290 290 290 290 289 289 288 288 287 285 285 284 283 284 283 280 279 279 278 278 277 277 276 275 274
289 288 289 288 292 291 292 292 292 292 291 292 291 291 291 291 291 291 290 291 290 290 290 289 288 287 286 285 284 283 282 283 282 279 279 279 278 278 277 277 277 276 275 274

GFSCGP_850_thetae_048.txt.gz
Theta_e
309 306 308 308 306 308 308 309 310 309 309 311 309 308 306 303 301 300 300 299 300 301 301 302 304 305 307 308 309 311 314 319 322 323 324 322 321 320 318 318 319 320 320 320
308 307 307 307 306 308 308 309 309 308 309 308 309 309 303 301 300 300 299 299 299 300 301 302 303 305 305 306 306 307 307 308 309 310 311 312 314 316 315 314 314 315 315 315
309 311 308 308 308 308 308 308 309 311 309 308 307 308 305 300 299 299 299 299 299 300 301 302 303 303 303 304 304 304 305 305 306 306 307 309 310 312 312 312 312 311 310 310
308 309 310 308 309 308 310 308 310 311 309 311 307 311 308 302 300 299 298 299 299 300 300 300 301 302 302 303 303 303 303 303 303 303 304 305 305 305 304 304 304 304 303 303
314 310 309 311 311 309 312 308 308 308 307 308 308 308 306 302 301 299 297 298 299 300 300 300 300 301 301 301 302 302 302 302 302 303 302 302 302 301 300 300 300 299 299 299
311 308 308 310 308 309 306 308 306 304 305 310 309 310 309 305 304 299 298 299 299 299 299 299 299 299 300 300 300 300 300 300 300 299 299 299 299 297 297 295 295 293 292 292
309 309 308 309 308 307 309 310 313 311 310 313 307 307 308 306 302 301 298 299 299 298 298 298 298 299 299 299 298 298 297 298 296 296 296 295 295 294 293 292 292 291 291 290
311 315 308 307 309 309 308 310 312 311 309 310 308 312 312 301 299 300 301 300 299 298 298 298 299 299 298 297 297 296 295 295 294 293 293 293 292 292 291 291 291 290 290 290
312 315 306 307 307 308 308 310 308 307 296 306 309 308 304 299 298 297 298 299 299 298 299 299 299 298 297 297 296 294 294 294 293 292 291 291 291 291 291 290 289 289 289 288
312 314 309 306 306 305 308 306 311 307 307 306 307 308 307 303 299 296 296 297 299 299 298 299 300 299 298 297 295 293 292 291 291 291 290 290 290 289 289 289 289 289 288 288
309 312 310 308 308 307 307 309 306 307 304 304 302 305 303 304 300 298 297 299 300 300 300 300 301 299 297 296 294 292 291 290 290 290 290 289 289 289 289 288 288 288 288 287
309 310 308 310 306 305 306 307 307 310 308 304 305 309 301 302 300 299 299 301 301 301 301 301 300 299 298 296 294 292 290 290 290 289 289 289 289 289 288 288 288 287 287 286
309 309 304 307 307 305 307 305 305 305 303 304 306 307 301 300 300 300 300 302 302 301 301 300 299 299 298 296 294 291 290 289 289 289 289 289 289 288 288 288 288 287 286 285
310 307 307 313 308 307 308 306 305 304 304 304 309 307 305 302 301 299 300 302 302 301 301 300 299 299 297 296 294 291 289 289 289 289 289 289 288 288 288 288 288 287 286 285
308 310 304 302 303 303 304 306 306 306 308 308 309 307 304 303 301 302 304 302 301 300 298 299 299 299 297 295 293 290 289 289 289 289 289 289 289 288 288 288 288 287 285 284
302 304 301 299 301 302 303 303 304 305 303 303 303 303 299 302 303 301 302 302 300 299 298 297 297 298 296 295 293 290 290 290 289 289 289 289 288 288 288 288 288 286 284 283
304 302 301 307 297 301 308 304 303 303 301 303 304 305 293 296 297 299 299 299 299 298 296 295 296 297 295 293 292 291 290 290 290 289 289 288 288 288 288 288 287 285 284 283
300 302 303 298 297 306 301 291 296 302 302 299 293 292 293 295 296 296 297 296 295 294 294 294 296 295 293 292 292 291 291 290 290 289 289 288 288 288 288 288 287 284 283 282
298 301 298 301 300 302 300 292 292 294 294 293 295 294 293 293 292 292 293 293 292 293 293 293 292 291 291 290 290 290 290 289 289 289 288 288 288 288 288 287 285 283 282 282
297 299 307 294 302 304 295 289 291 293 296 289 293 292 290 290 286 287 292 292 292 292 292 291 291 290 290 290 290 289 289 289 289 289 288 288 288 288 287 285 283 282 282 281
296 296 304 297 304 297 292 289 291 293 295 289 290 292 290 288 291 292 291 292 292 292 292 291 290 290 291 290 289 289 289 289 289 288 288 287 287 287 286 284 282 281 281 281
295 297 295 295 298 300 290 289 293 293 291 293 292 292 292 292 292 291 291 292 292 291 291 291 291 291 290 290 289 289 289 289 288 287 287 286 286 285 285 283 281 281 280 280
292 293 292 295 296 289 290 293 294 294 294 293 293 292 293 292 291 291 291 291 291 290 290 290 290 290 290 290 289 289 289 288 287 286 285 285 284 285 284 281 280 280 279 279
288 287 290 290 289 289 291 293 293 293 293 293 293 293 292 291 291 291 291 291 291 290 290 290 290 290 290 290 289 289 288 287 286 285 284 284 284 284 282 280 279 279 278 278
290 288 287 288 289 290 291 292 293 293 293 292 292 292 292 291 291 291 290 290 290 290 290 290 290 290 290 289 289 288 287 286 285 284 283 283 283 282 279 279 278 278 277 276
288 288 289 288 291 291 292 293 293 292 291 291 291 291 291 291 291 291 291 290 290 290 290 290 290 290 289 288 288 286 285 284 284 283 282 282 281 279 278 278 278 276 276 275